Meteo Giornale » Osservazioni meteo Italia » Firenze-Peretola

ore: 18:50 - Osservazioni Meteo Firenze-Peretola
Lat. 43° 48' N Lon. 11° 12' E Alt. 40 metri s.l.m.

molto_nuvoloso Europe/Rome

11 °C

Molto Nuvoloso

Temp. 24 Ore

0 °C

16 °C

Nord

1.8 Km/h

Dew point 7 °C

Umidità 76 %

Visibilità  10 Km

Il sole sorge alle ore 06:52

Il sole tramonta alle ore 18:03

Data e Ora Cielo e Fenomeni T °C DP °C Um. % Pres. hPa Vis. km Vento km/h
Oggi h: 18:50 molto_nuvoloso Molto Nuvoloso 11 7 76 1016 10 N 1.8
Oggi h: 18:20 molto_nuvoloso Molto Nuvoloso 11 7 76 1016 10 N/NO 7.4
Oggi h: 17:50 molto_nuvoloso Molto Nuvoloso 11 7 76 1016 10 N/NO 9.3
Oggi h: 17:20 molto_nuvoloso Molto Nuvoloso 11 7 76 1016 10 NO 11.1
Oggi h: 16:50 molto_nuvoloso Molto Nuvoloso 11 7 76 1016 10 O/NO 14.8
Oggi h: 16:20 molto_nuvoloso Molto Nuvoloso 12 7 71 1016 10 O/NO 16.7
Oggi h: 15:50 nuvoloso Nuvoloso 13 6 62 1016 10 O/NO 14.8
Oggi h: 15:20 molto_nuvoloso Molto Nuvoloso 14 6 58 1016 10 O/NO 16.7
Oggi h: 14:50 nuvoloso Nuvoloso 14 6 58 1016 10 O 11.1
Oggi h: 14:20 nuvoloso Nuvoloso 16 5 47 1016 10 O/SO 13
Oggi h: 13:50 poco_nuvoloso Poco Nuvoloso 15 5 51 1016 10 O/SO 14.8
Oggi h: 13:20 poco_nuvoloso Poco Nuvoloso 15 5 51 1017 10 O/SO 7.4
Oggi h: 12:50 sereno Sereno 14 5 54 1017 10 N 5.5
Oggi h: 12:20 sereno Sereno 13 4 54 1018 10 N 3.7
Oggi h: 11:50 sereno Sereno 12 3 54 1018 10 N 3.7
Oggi h: 11:20 sereno Sereno 10 2 57 1019 10 N 3.7
Oggi h: 10:50 sereno Sereno 9 2 61 1019 10 N 3.7
Oggi h: 10:20 sereno Sereno 8 2 65 1019 10 N 3.7
Oggi h: 09:50 sereno Sereno 7 1 65 1019 10 N 0
Oggi h: 09:20 sereno Sereno 6 1 70 1019 10 N 1.8
Oggi h: 08:50 sereno Sereno 5 1 75 1019 10 N 0
Oggi h: 08:20 sereno Sereno 4 2 86 1019 10 N 0
Oggi h: 07:50 sereno Sereno 2 1 93 1019 10 N 0
Oggi h: 07:20 sereno Sereno 0 -1 92 1019 10 N 0
Oggi h: 06:50 sereno Sereno 1 -0 93 1019 10 N 0
Oggi h: 06:20 sereno Sereno 1 -0 93 1018 10 N 0
Oggi h: 05:50 sereno Sereno 1 -1 86 1019 10 N 1.8
Oggi h: 05:20 sereno Sereno 1 -0 93 1019 10 N 0
Oggi h: 04:50 sereno Sereno 0 -1 92 1019 10 N 0
Oggi h: 04:20 sereno Sereno 1 -1 86 1019 10 N 0
Oggi h: 03:50 sereno Sereno 1 -1 86 1019 10 N 1.8
Oggi h: 03:20 sereno Sereno 1 -1 86 1019 10 N 1.8
Oggi h: 02:50 sereno Sereno 2 -1 80 1019 10 N 3.7
Oggi h: 02:20 sereno Sereno 2 -0 86 1019 10 N 1.8
Oggi h: 01:50 sereno Sereno 2 -1 80 1019 10 N 1.8
Oggi h: 01:20 sereno Sereno 3 -1 74 1019 10 N 0
Oggi h: 00:50 sereno Sereno 3 -1 74 1019 10 N 5.5
Oggi h: 00:20 sereno Sereno 3 -1 74 1019 10 N 5.5
Ieri h: 23:50 sereno Sereno 4 -1 69 1019 10 N 5.5
Ieri h: 22:50 sereno Sereno 5 -1 65 1019 10 N 5.5
Ieri h: 22:20 sereno Sereno 5 -1 65 1019 10 N 5.5
Ieri h: 21:50 sereno Sereno 5 -1 65 1019 10 E 7.4
Ieri h: 21:20 sereno Sereno 7 -0 60 1018 10 N 5.5
Ieri h: 20:50 sereno Sereno 6 -1 60 1018 10 N 5.5
Ieri h: 20:20 sereno Sereno 7 -1 56 1018 10 N 3.7
Ieri h: 19:50 sereno Sereno 9 -1 49 1018 10 N 3.7
Ieri h: 19:20 sereno Sereno 10 -2 42 1018 10 N 1.8